{"data":{"norad_id":66384,"intl_designator":"2025-257E","name":"STARLINK-35662","alt_names":[],"object_type":"PAYLOAD","status":"ACTIVE","operator":null,"country":"US","launch_date":"2025-11-09","launch_site_code":"AFETR","launch_vehicle":null,"mission":null,"orbit_class":"UNKNOWN","rcs_meters":null,"size_class":null,"mass_kg":null,"dimensions":null,"purposes":["comms"],"wikipedia_slug":null,"has_3d_model":false,"image_url":null,"decayed_at":null,"tle_current":{"epoch":"2026-05-25T05:16:01.604064Z","epoch_age_seconds":52291,"freshness":"FRESH","line1":"1 66384U 25257E   26145.21946301  .00018855  00000+0  64696-3 0  9992","line2":"2 66384  53.1582 221.3316 0001285  76.0896 284.0247 15.30207004 31455","mean_motion":15.30207004,"eccentricity":0.0001285,"inclination_deg":53.1582,"raan_deg":221.3316,"arg_perigee_deg":76.0896,"mean_anomaly_deg":284.0247,"bstar":0.00064696,"rev_number":3145,"period_min":94.10491497136,"perigee_km":474.31350376392,"apogee_km":476.07480987122,"semimajor_km":6853.3311568176,"source":"CELESTRAK","updated_at":"2026-05-25T13:38:21.200783Z"}}}